QPF
0.00 0.00 0.00 0.00 0.00 0.00 0.00 0.00 0.00 0.00 0.00 0.00 0.00 0.00 0.00 0.00 0.00 0.01 0.02 0.01 0.01 0.00 0.00 0.00 0.00 0.00 0.00 0.00 0.00 0.00 0.00 0.00 0.00 0.00 0.00 0.00 0.00 0.00 0.00 0.00 0.00 0.00 0.00 0.00
0.00 0.00 0.00 0.00 0.00 0.00 0.00 0.00 0.00 0.00 0.00 0.00 0.00 0.00 0.00 0.00 0.00 0.00 0.00 0.00 0.00 0.01 0.01 0.02 0.00 0.00 0.00 0.01 0.01 0.00 0.00 0.00 0.00 0.00 0.00 0.00 0.00 0.00 0.00 0.00 0.00 0.00 0.00 0.00
0.00 0.00 0.00 0.00 0.00 0.00 0.00 0.00 0.00 0.00 0.00 0.00 0.00 0.00 0.00 0.00 0.00 0.00 0.00 0.00 0.00 0.02 0.00 0.03 0.02 0.00 0.01 0.02 0.01 0.00 0.01 0.00 0.00 0.00 0.00 0.00 0.00 0.00 0.00 0.00 0.00 0.00 0.00 0.00
0.00 0.00 0.00 0.00 0.00 0.00 0.00 0.00 0.00 0.00 0.00 0.00 0.00 0.00 0.00 0.00 0.00 0.00 0.01 0.01 0.01 0.00 0.02 0.04 0.02 0.01 0.01 0.02 0.01 0.01 0.01 0.00 0.00 0.00 0.00 0.00 0.00 0.00 0.00 0.00 0.00 0.00 0.00 0.00
0.00 0.00 0.00 0.00 0.00 0.00 0.00 0.00 0.00 0.00 0.00 0.00 0.00 0.00 0.00 0.00 0.00 0.00 0.02 0.01 0.01 0.01 0.03 0.03 0.02 0.01 0.00 0.02 0.02 0.02 0.00 0.00 0.00 0.00 0.00 0.00 0.00 0.00 0.00 0.00 0.00 0.00 0.00 0.00
0.00 0.00 0.00 0.00 0.00 0.00 0.00 0.00 0.00 0.00 0.00 0.00 0.00 0.00 0.00 0.00 0.00 0.00 0.00 0.00 0.00 0.01 0.02 0.02 0.01 0.00 0.00 0.02 0.02 0.02 0.00 0.00 0.00 0.00 0.00 0.00 0.00 0.00 0.00 0.00 0.00 0.00 0.00 0.00
0.00 0.00 0.00 0.00 0.00 0.00 0.00 0.00 0.00 0.00 0.00 0.00 0.00 0.00 0.00 0.00 0.00 0.00 0.00 0.00 0.00 0.00 0.00 0.00 0.00 0.00 0.01 0.02 0.01 0.01 0.00 0.00 0.00 0.00 0.00 0.00 0.00 0.00 0.00 0.00 0.00 0.00 0.00 0.00
0.00 0.00 0.00 0.00 0.00 0.00 0.00 0.00 0.00 0.00 0.00 0.00 0.00 0.00 0.00 0.00 0.00 0.00 0.00 0.00 0.00 0.00 0.00 0.00 0.00 0.00 0.01 0.02 0.01 0.00 0.00 0.00 0.00 0.00 0.00 0.00 0.00 0.00 0.00 0.00 0.00 0.00 0.00 0.00
0.00 0.00 0.00 0.00 0.00 0.00 0.00 0.00 0.00 0.00 0.00 0.00 0.00 0.00 0.00 0.00 0.00 0.00 0.00 0.00 0.00 0.00 0.00 0.00 0.00 0.00 0.01 0.00 0.00 0.00 0.00 0.00 0.00 0.00 0.00 0.00 0.00 0.00 0.00 0.00 0.00 0.00 0.00 0.00
0.00 0.00 0.00 0.00 0.00 0.00 0.00 0.00 0.00 0.00 0.00 0.00 0.00 0.00 0.00 0.00 0.00 0.00 0.00 0.00 0.00 0.00 0.00 0.00 0.00 0.00 0.00 0.00 0.00 0.00 0.00 0.00 0.00 0.00 0.00 0.00 0.00 0.00 0.00 0.00 0.00 0.00 0.00 0.00
0.00 0.00 0.00 0.00 0.00 0.00 0.00 0.00 0.00 0.00 0.00 0.00 0.00 0.00 0.00 0.00 0.00 0.00 0.00 0.00 0.00 0.00 0.00 0.00 0.00 0.00 0.00 0.00 0.00 0.00 0.00 0.00 0.00 0.00 0.00 0.00 0.00 0.00 0.00 0.00 0.00 0.00 0.00 0.00
0.00 0.00 0.00 0.00 0.00 0.00 0.00 0.00 0.00 0.00 0.00 0.00 0.00 0.00 0.00 0.00 0.00 0.00 0.00 0.00 0.00 0.00 0.00 0.00 0.00 0.00 0.00 0.00 0.00 0.00 0.00 0.00 0.00 0.00 0.00 0.00 0.00 0.00 0.00 0.00 0.00 0.00 0.00 0.00
0.00 0.00 0.00 0.00 0.00 0.00 0.00 0.00 0.00 0.00 0.00 0.00 0.00 0.00 0.00 0.00 0.00 0.00 0.00 0.00 0.00 0.00 0.00 0.00 0.00 0.00 0.00 0.00 0.00 0.00 0.00 0.00 0.00 0.00 0.00 0.00 0.00 0.00 0.00 0.00 0.00 0.00 0.00 0.00
0.00 0.00 0.00 0.00 0.00 0.00 0.00 0.00 0.00 0.00 0.00 0.00 0.00 0.00 0.00 0.00 0.00 0.00 0.00 0.00 0.00 0.00 0.00 0.00 0.00 0.00 0.00 0.00 0.00 0.00 0.00 0.00 0.00 0.00 0.00 0.00 0.00 0.00 0.00 0.00 0.00 0.00 0.00 0.00
0.00 0.00 0.00 0.00 0.00 0.00 0.00 0.00 0.00 0.00 0.00 0.00 0.00 0.00 0.00 0.00 0.00 0.00 0.00 0.00 0.00 0.00 0.00 0.00 0.00 0.00 0.00 0.00 0.00 0.00 0.00 0.00 0.00 0.00 0.00 0.00 0.00 0.00 0.00 0.00 0.00 0.00 0.00 0.00
0.00 0.00 0.00 0.00 0.00 0.00 0.00 0.00 0.00 0.00 0.00 0.00 0.00 0.00 0.00 0.00 0.00 0.00 0.00 0.00 0.00 0.00 0.00 0.00 0.00 0.00 0.00 0.00 0.00 0.00 0.00 0.00 0.00 0.00 0.00 0.00 0.00 0.00 0.00 0.00 0.00 0.00 0.00 0.00
0.00 0.00 0.00 0.00 0.00 0.00 0.00 0.00 0.00 0.00 0.00 0.00 0.00 0.00 0.00 0.00 0.00 0.00 0.00 0.00 0.00 0.00 0.00 0.00 0.00 0.00 0.00 0.00 0.00 0.00 0.00 0.00 0.00 0.00 0.00 0.00 0.00 0.00 0.00 0.00 0.00 0.00 0.00 0.00
0.00 0.00 0.00 0.00 0.00 0.00 0.00 0.00 0.00 0.00 0.00 0.00 0.00 0.00 0.00 0.00 0.00 0.00 0.00 0.00 0.00 0.00 0.00 0.00 0.00 0.00 0.00 0.00 0.00 0.00 0.00 0.00 0.00 0.00 0.00 0.00 0.00 0.00 0.00 0.00 0.00 0.00 0.00 0.00
0.00 0.00 0.00 0.00 0.00 0.00 0.00 0.00 0.00 0.00 0.00 0.00 0.00 0.00 0.00 0.00 0.00 0.00 0.00 0.00 0.00 0.00 0.00 0.00 0.00 0.00 0.00 0.00 0.00 0.00 0.00 0.00 0.00 0.00 0.00 0.00 0.00 0.00 0.00 0.00 0.00 0.00 0.00 0.00
0.00 0.00 0.00 0.00 0.00 0.00 0.00 0.00 0.00 0.00 0.00 0.00 0.00 0.00 0.00 0.00 0.00 0.00 0.00 0.00 0.00 0.00 0.00 0.00 0.00 0.00 0.00 0.00 0.00 0.00 0.00 0.00 0.00 0.00 0.00 0.00 0.00 0.00 0.00 0.00 0.00 0.00 0.00 0.00
0.00 0.00 0.00 0.00 0.00 0.00 0.00 0.00 0.00 0.00 0.00 0.00 0.00 0.00 0.00 0.00 0.00 0.00 0.00 0.00 0.00 0.00 0.00 0.00 0.00 0.00 0.00 0.00 0.00 0.00 0.00 0.00 0.00 0.00 0.00 0.00 0.00 0.00 0.00 0.00 0.00 0.00 0.00 0.00
0.00 0.00 0.00 0.00 0.00 0.00 0.00 0.00 0.00 0.00 0.00 0.00 0.00 0.00 0.00 0.00 0.00 0.00 0.00 0.00 0.00 0.00 0.00 0.00 0.00 0.00 0.00 0.00 0.00 0.00 0.00 0.00 0.00 0.00 0.00 0.00 0.00 0.00 0.00 0.00 0.00 0.00 0.00 0.00
0.00 0.00 0.00 0.00 0.00 0.00 0.00 0.00 0.00 0.00 0.00 0.00 0.00 0.00 0.00 0.00 0.00 0.00 0.00 0.00 0.00 0.00 0.00 0.00 0.00 0.00 0.00 0.00 0.00 0.00 0.00 0.00 0.00 0.00 0.00 0.00 0.00 0.00 0.00 0.00 0.00 0.00 0.00 0.00
0.00 0.00 0.00 0.00 0.00 0.00 0.00 0.00 0.00 0.00 0.00 0.00 0.00 0.00 0.00 0.00 0.00 0.00 0.00 0.00 0.00 0.00 0.00 0.00 0.00 0.00 0.00 0.00 0.00 0.00 0.00 0.00 0.00 0.00 0.00 0.00 0.00 0.00 0.00 0.00 0.00 0.00 0.00 0.00
0.01 0.00 0.00 0.00 0.00 0.00 0.00 0.00 0.00 0.00 0.00 0.00 0.00 0.00 0.00 0.00 0.00 0.00 0.00 0.00 0.00 0.00 0.00 0.00 0.00 0.00 0.00 0.00 0.00 0.00 0.00 0.00 0.00 0.00 0.00 0.00 0.00 0.00 0.00 0.00 0.00 0.00 0.00 0.00
0.00 0.00 0.00 0.00 0.00 0.00 0.00 0.00 0.00 0.00 0.00 0.00 0.00 0.00 0.00 0.00 0.00 0.00 0.00 0.00 0.00 0.00 0.00 0.00 0.00 0.00 0.00 0.00 0.00 0.00 0.00 0.00 0.00 0.00 0.00 0.00 0.00 0.00 0.00 0.00 0.00 0.00 0.00 0.00
MSLP
1007.14 1007.85 1007.88 1008.07 1008.28 1008.33 1008.72 1009.14 1009.61 1009.28 1009.07 1009.80 1010.06 1010.48 1010.42 1010.61 1011.61 1012.39 1012.81 1013.52 1014.50 1015.67 1016.64 1017.38 1018.11 1018.58 1019.12 1019.76 1020.15 1019.90 1020.09 1021.28 1022.10 1022.55 1022.96 1023.19 1023.01 1022.87 1022.80 1022.74 1022.56 1022.27 1022.07 1021.84
1007.45 1007.43 1007.48 1007.66 1007.98 1007.89 1008.39 1008.73 1008.90 1008.72 1008.81 1009.67 1010.00 1009.88 1010.10 1010.35 1010.47 1010.95 1011.79 1013.06 1014.28 1015.55 1016.70 1017.69 1018.60 1019.51 1019.66 1019.57 1020.00 1020.31 1020.62 1020.96 1021.22 1022.26 1022.53 1022.66 1022.81 1022.97 1022.89 1022.72 1022.37 1022.19 1021.99 1021.80
1007.16 1007.06 1007.03 1007.26 1007.59 1007.80 1008.03 1008.24 1008.39 1008.67 1009.01 1009.62 1010.29 1010.27 1010.11 1010.35 1010.40 1010.97 1011.60 1012.56 1013.73 1014.74 1015.94 1017.55 1018.46 1019.35 1020.14 1020.27 1019.97 1020.54 1020.64 1020.98 1021.39 1021.89 1022.46 1022.92 1023.00 1023.38 1023.27 1022.91 1022.51 1022.18 1021.89 1021.57
1007.12 1006.48 1006.59 1006.86 1007.00 1007.26 1007.54 1007.27 1007.95 1008.85 1010.03 1010.49 1010.63 1010.83 1010.12 1010.30 1010.61 1010.83 1011.56 1012.24 1012.85 1013.46 1015.71 1016.46 1017.67 1018.82 1019.43 1019.68 1019.98 1020.60 1020.94 1021.47 1021.45 1021.91 1022.53 1023.03 1023.24 1023.35 1023.33 1023.05 1022.76 1022.34 1021.88 1021.64
1006.69 1006.31 1006.25 1006.44 1006.25 1006.61 1006.78 1006.98 1008.01 1008.81 1010.03 1011.02 1011.47 1011.72 1010.26 1010.44 1010.75 1010.92 1010.92 1011.32 1011.88 1013.28 1014.36 1015.76 1016.85 1017.95 1018.75 1019.33 1019.98 1020.69 1020.99 1021.68 1021.80 1022.19 1022.50 1022.88 1023.14 1023.21 1023.20 1023.13 1023.03 1022.67 1022.08 1021.71
1006.54 1006.06 1005.81 1005.69 1005.65 1006.08 1006.42 1007.09 1008.27 1009.59 1010.98 1011.80 1011.27 1011.66 1010.49 1010.42 1009.66 1009.68 1010.31 1010.42 1011.67 1012.72 1013.80 1015.04 1016.25 1017.39 1018.55 1019.50 1020.01 1020.35 1021.01 1021.89 1021.65 1022.17 1022.42 1022.68 1022.92 1023.18 1023.41 1023.07 1022.94 1022.61 1022.22 1021.93
1006.56 1006.12 1005.48 1005.35 1005.64 1006.04 1006.73 1008.13 1009.57 1011.09 1012.12 1011.90 1011.32 1011.92 1010.36 1008.81 1008.59 1008.85 1009.06 1010.11 1011.51 1012.91 1013.74 1014.74 1016.01 1017.23 1018.27 1019.19 1019.78 1020.23 1020.94 1021.83 1021.72 1022.03 1022.41 1022.57 1022.79 1023.04 1023.13 1022.98 1022.87 1022.73 1022.52 1022.21
1006.61 1006.10 1005.27 1004.93 1005.09 1005.76 1006.69 1007.82 1009.41 1010.62 1011.96 1011.69 1011.51 1010.86 1008.77 1008.06 1008.50 1009.08 1009.68 1010.54 1011.41 1012.26 1013.77 1014.70 1015.61 1016.66 1017.69 1018.73 1019.30 1019.70 1020.94 1021.71 1021.84 1022.03 1022.41 1022.45 1022.52 1023.06 1022.98 1022.93 1022.81 1022.73 1022.65 1022.39
1006.27 1005.69 1004.52 1004.17 1004.45 1005.17 1006.42 1007.50 1008.00 1009.89 1011.34 1011.76 1010.97 1009.80 1008.19 1008.11 1008.73 1009.53 1010.19 1010.81 1011.50 1012.60 1013.34 1014.13 1015.18 1016.03 1017.08 1018.08 1018.69 1019.19 1020.49 1021.48 1021.66 1021.94 1022.28 1022.30 1022.36 1022.65 1022.76 1022.62 1022.76 1022.72 1022.44 1022.16
1005.46 1005.51 1004.38 1003.69 1003.95 1004.75 1005.31 1006.21 1008.15 1010.03 1011.15 1011.80 1011.10 1010.03 1008.59 1008.26 1008.59 1009.29 1010.12 1010.34 1011.04 1012.10 1013.17 1014.12 1014.83 1015.70 1016.72 1017.59 1018.37 1019.05 1020.03 1020.90 1021.38 1021.68 1021.92 1022.14 1022.26 1022.29 1022.36 1022.59 1022.64 1022.66 1022.34 1022.06
1005.14 1005.53 1005.30 1004.39 1004.34 1004.72 1005.62 1006.21 1007.52 1009.04 1010.17 1010.83 1010.73 1009.66 1007.07 1006.79 1007.19 1008.21 1008.96 1009.84 1010.51 1011.65 1012.74 1013.69 1014.43 1015.47 1016.29 1017.20 1018.09 1018.73 1019.85 1020.64 1021.22 1021.52 1021.79 1021.97 1022.16 1022.12 1022.29 1022.46 1022.40 1022.43 1022.28 1022.07
1004.62 1005.31 1005.56 1005.19 1004.28 1004.21 1004.71 1005.47 1006.74 1008.70 1009.62 1010.05 1009.52 1007.66 1005.86 1006.15 1006.50 1007.51 1008.67 1009.42 1010.43 1011.35 1012.41 1013.46 1014.45 1015.28 1016.13 1016.86 1017.81 1018.45 1019.57 1020.22 1020.87 1021.07 1021.43 1021.87 1022.04 1022.06 1022.21 1022.18 1022.24 1022.12 1022.10 1021.86
1004.03 1005.12 1005.56 1005.31 1004.85 1004.29 1004.29 1004.84 1005.61 1006.57 1007.64 1008.67 1008.87 1007.02 1005.91 1006.18 1006.88 1007.51 1008.42 1009.54 1010.48 1011.20 1012.27 1013.32 1014.32 1014.96 1015.73 1016.56 1017.58 1018.39 1019.30 1019.98 1020.54 1020.77 1021.29 1021.75 1021.83 1021.87 1021.96 1022.02 1021.99 1021.96 1021.88 1021.83
1002.49 1004.24 1004.72 1004.75 1004.22 1003.60 1003.78 1004.11 1004.63 1005.56 1006.91 1007.16 1007.12 1006.32 1006.02 1006.33 1006.65 1007.44 1008.49 1009.47 1010.33 1011.00 1012.12 1013.18 1014.11 1014.79 1015.53 1016.41 1017.27 1018.19 1019.16 1019.76 1020.10 1020.59 1021.14 1021.58 1021.62 1021.62 1021.57 1021.72 1021.73 1021.74 1021.71 1021.73
1002.54 1004.08 1004.20 1003.74 1003.53 1003.44 1003.16 1003.38 1003.83 1004.60 1004.70 1005.66 1005.28 1005.50 1004.81 1004.99 1005.66 1006.55 1007.52 1009.01 1010.09 1011.13 1012.06 1012.71 1013.47 1014.56 1015.46 1016.38 1017.31 1018.24 1018.97 1019.39 1019.88 1020.55 1021.08 1021.17 1021.09 1021.47 1021.49 1021.57 1021.63 1021.62 1021.55 1021.51
1003.00 1003.73 1004.06 1004.06 1003.52 1003.35 1003.14 1002.97 1003.01 1003.46 1003.73 1003.95 1004.11 1004.24 1003.82 1004.74 1005.58 1006.83 1007.49 1008.57 1009.49 1010.36 1011.35 1012.35 1013.34 1014.19 1015.06 1016.00 1017.01 1017.92 1018.54 1019.13 1019.76 1020.36 1020.61 1020.61 1020.93 1021.19 1021.32 1021.42 1021.47 1021.39 1021.35 1021.37
1003.32 1003.98 1004.81 1004.69 1003.77 1003.51 1003.32 1002.70 1002.74 1002.98 1002.86 1003.04 1003.49 1003.58 1003.89 1004.81 1005.50 1006.10 1007.03 1007.75 1008.52 1009.48 1010.45 1011.58 1012.33 1013.34 1014.50 1015.47 1016.47 1017.34 1018.13 1019.04 1019.70 1019.98 1020.27 1020.42 1020.61 1020.92 1021.07 1021.05 1021.15 1021.07 1021.14 1021.17
1003.36 1004.24 1004.89 1005.32 1004.65 1004.10 1003.03 1002.53 1002.18 1002.46 1002.47 1002.45 1002.96 1003.24 1003.85 1004.12 1004.54 1005.50 1006.22 1006.72 1008.04 1009.06 1010.11 1011.19 1012.20 1013.16 1014.33 1015.38 1016.44 1017.30 1018.24 1018.95 1019.48 1019.81 1020.03 1020.12 1020.28 1020.47 1020.61 1020.72 1020.84 1020.84 1020.84 1020.90
1002.65 1004.25 1005.58 1005.80 1005.47 1004.72 1003.29 1002.66 1002.25 1002.26 1002.55 1002.28 1002.52 1003.14 1003.80 1004.29 1005.28 1005.83 1005.79 1006.36 1006.75 1007.44 1008.87 1010.31 1011.68 1012.96 1014.34 1015.39 1016.32 1017.41 1018.22 1018.82 1019.34 1019.58 1019.71 1019.90 1020.04 1020.16 1020.33 1020.55 1020.58 1020.44 1020.60 1020.61
1003.08 1003.70 1004.97 1006.29 1005.93 1004.93 1003.20 1002.04 1001.85 1001.84 1002.31 1002.12 1002.66 1003.47 1004.40 1004.85 1005.94 1005.63 1005.81 1006.69 1007.59 1008.55 1009.47 1010.56 1011.85 1013.24 1014.39 1015.44 1016.46 1017.41 1018.16 1018.67 1019.10 1019.17 1019.30 1019.40 1019.49 1019.77 1020.00 1020.14 1020.14 1020.17 1020.26 1020.27
1004.23 1004.94 1005.59 1006.02 1005.52 1004.40 1002.69 1002.09 1002.20 1002.62 1002.81 1002.08 1002.52 1003.16 1004.33 1004.62 1004.47 1004.51 1005.24 1006.41 1007.36 1008.73 1009.99 1011.25 1012.14 1013.25 1014.36 1015.53 1016.54 1017.47 1018.01 1018.55 1018.60 1018.73 1018.92 1019.08 1019.18 1019.50 1019.67 1019.96 1020.06 1019.99 1020.08 1020.14
1005.30 1005.57 1005.92 1005.88 1005.45 1004.60 1003.20 1002.83 1002.63 1002.02 1001.96 1002.06 1002.73 1003.29 1003.99 1004.84 1005.42 1005.96 1006.76 1007.25 1007.96 1009.25 1010.79 1011.81 1012.61 1013.77 1014.85 1015.72 1016.57 1017.54 1018.01 1018.02 1018.33 1018.53 1018.68 1018.94 1019.20 1019.46 1019.65 1019.93 1019.96 1019.91 1020.00 1020.11
1006.14 1006.01 1005.57 1005.59 1004.88 1004.04 1003.38 1002.94 1002.21 1002.24 1002.34 1002.53 1003.13 1003.55 1004.17 1005.58 1006.39 1007.11 1008.14 1008.87 1009.31 1010.00 1011.23 1012.23 1013.14 1014.38 1015.45 1016.12 1016.70 1017.50 1017.73 1017.99 1018.19 1018.49 1018.64 1018.90 1019.21 1019.49 1019.65 1019.82 1019.92 1019.98 1020.10 1020.15
1006.27 1006.10 1006.04 1005.36 1004.70 1003.98 1003.15 1002.61 1002.44 1002.59 1002.86 1002.93 1003.51 1004.41 1005.03 1006.02 1007.31 1008.08 1008.90 1009.72 1010.45 1010.93 1011.77 1012.70 1013.81 1015.06 1016.08 1016.55 1016.99 1017.24 1017.63 1017.83 1018.24 1018.70 1019.00 1019.30 1019.58 1019.68 1019.73 1019.66 1019.64 1019.67 1019.78 1019.99
1006.70 1006.50 1006.11 1005.30 1004.50 1003.96 1003.16 1002.85 1002.60 1002.80 1003.26 1003.71 1004.41 1005.19 1006.06 1006.88 1008.16 1008.60 1009.53 1010.40 1011.13 1011.74 1012.47 1013.27 1014.36 1015.41 1016.19 1016.63 1017.06 1017.40 1017.70 1018.05 1018.56 1018.89 1019.24 1019.54 1019.60 1019.62 1019.50 1019.34 1019.18 1019.15 1019.14 1019.37
1006.26 1005.68 1005.78 1004.99 1004.21 1004.06 1003.56 1002.97 1002.69 1003.32 1003.73 1004.40 1004.91 1006.28 1007.15 1007.38 1008.08 1009.10 1010.09 1010.79 1011.47 1012.35 1013.16 1014.04 1014.91 1015.60 1016.18 1016.62 1017.07 1017.51 1017.74 1017.99 1018.59 1019.05 1019.44 1019.47 1019.45 1019.37 1019.24 1019.15 1018.85 1018.68 1018.58 1018.75
Thickness
5776 5759 5749 5766 5774 5775 5768 5761 5755 5767 5784 5774 5765 5764 5773 5779 5773 5761 5762 5757 5749 5740 5732 5724 5714 5708 5699 5691 5688 5686 5680 5668 5657 5648 5640 5633 5630 5625 5621 5615 5611 5608 5604 5600
5758 5751 5772 5779 5778 5780 5773 5762 5764 5778 5786 5777 5770 5773 5775 5780 5779 5775 5770 5761 5750 5741 5729 5720 5709 5698 5694 5693 5687 5680 5673 5667 5659 5646 5640 5633 5627 5620 5615 5611 5608 5603 5599 5593
5748 5770 5778 5775 5771 5768 5767 5762 5767 5772 5777 5772 5766 5761 5767 5772 5777 5774 5772 5766 5754 5742 5732 5718 5709 5698 5687 5684 5683 5675 5668 5663 5656 5645 5636 5628 5621 5612 5607 5605 5602 5598 5592 5588
5756 5778 5775 5768 5766 5770 5755 5785 5781 5771 5752 5733 5763 5725 5760 5768 5764 5770 5767 5758 5753 5750 5729 5719 5709 5699 5689 5684 5679 5670 5663 5656 5652 5643 5632 5622 5614 5608 5602 5598 5594 5590 5586 5581
5750 5764 5765 5759 5770 5778 5770 5787 5775 5769 5749 5740 5739 5722 5752 5759 5753 5757 5761 5761 5756 5741 5729 5717 5710 5702 5691 5684 5675 5666 5659 5649 5645 5636 5626 5616 5610 5603 5597 5591 5585 5582 5580 5575
5751 5774 5771 5771 5785 5782 5793 5782 5761 5744 5726 5707 5732 5724 5735 5745 5759 5768 5770 5768 5753 5737 5723 5719 5714 5703 5689 5677 5671 5664 5654 5644 5642 5630 5623 5614 5607 5600 5592 5588 5583 5578 5574 5568
5746 5749 5772 5784 5769 5776 5765 5745 5706 5703 5699 5703 5732 5717 5738 5768 5775 5780 5778 5766 5752 5738 5728 5721 5711 5699 5687 5677 5669 5662 5652 5641 5636 5627 5618 5612 5604 5598 5592 5585 5579 5573 5566 5560
5716 5716 5755 5777 5766 5758 5752 5744 5704 5689 5690 5714 5725 5716 5751 5778 5781 5777 5770 5761 5751 5743 5729 5720 5711 5700 5688 5678 5669 5663 5648 5636 5629 5623 5615 5609 5604 5593 5587 5580 5574 5568 5560 5554
5710 5723 5771 5778 5783 5775 5755 5735 5761 5728 5717 5700 5714 5742 5771 5771 5767 5761 5756 5754 5747 5740 5732 5722 5711 5701 5690 5679 5671 5662 5647 5632 5627 5620 5612 5606 5600 5591 5584 5580 5570 5563 5557 5551
5737 5725 5762 5778 5782 5776 5764 5771 5733 5710 5704 5692 5704 5723 5735 5762 5758 5757 5752 5754 5750 5740 5727 5716 5709 5699 5688 5680 5669 5657 5645 5634 5625 5618 5610 5603 5596 5590 5584 5576 5568 5559 5554 5548
5739 5731 5737 5763 5754 5752 5751 5747 5740 5728 5711 5695 5690 5712 5764 5775 5776 5765 5763 5756 5751 5739 5726 5716 5708 5697 5689 5678 5665 5655 5643 5633 5622 5614 5605 5598 5592 5588 5581 5572 5566 5557 5550 5544
5742 5729 5713 5730 5762 5773 5763 5757 5744 5711 5714 5705 5703 5719 5783 5782 5784 5773 5761 5758 5749 5738 5727 5715 5702 5694 5685 5674 5662 5654 5643 5632 5620 5611 5602 5593 5590 5585 5577 5571 5563 5555 5548 5542
5741 5716 5703 5714 5741 5760 5760 5760 5755 5740 5725 5709 5701 5719 5777 5776 5770 5766 5758 5753 5745 5738 5723 5709 5699 5691 5681 5672 5661 5652 5640 5628 5617 5608 5599 5592 5589 5583 5575 5569 5562 5554 5546 5539
5762 5722 5725 5712 5732 5755 5754 5766 5757 5746 5714 5724 5720 5743 5760 5761 5763 5759 5753 5749 5742 5735 5719 5707 5696 5687 5679 5669 5659 5648 5634 5623 5615 5606 5598 5591 5586 5580 5575 5568 5560 5553 5544 5537
5746 5724 5732 5742 5751 5756 5762 5764 5757 5747 5751 5734 5751 5742 5766 5772 5765 5763 5759 5747 5736 5723 5713 5706 5696 5682 5673 5664 5652 5641 5628 5620 5613 5604 5596 5591 5586 5577 5572 5565 5557 5549 5543 5536
5738 5729 5736 5738 5750 5750 5753 5761 5763 5757 5760 5750 5757 5751 5774 5769 5765 5756 5752 5743 5730 5722 5713 5703 5691 5680 5671 5661 5648 5635 5626 5619 5611 5602 5596 5592 5584 5576 5569 5561 5555 5548 5542 5534
5733 5722 5716 5718 5747 5743 5730 5751 5754 5753 5762 5761 5749 5764 5768 5763 5760 5755 5749 5744 5731 5723 5713 5701 5694 5682 5670 5659 5645 5635 5627 5616 5607 5602 5595 5589 5582 5574 5567 5562 5554 5548 5540 5533
5726 5721 5714 5711 5727 5699 5741 5758 5764 5754 5761 5768 5770 5768 5766 5768 5770 5760 5755 5746 5731 5722 5710 5699 5688 5678 5665 5652 5642 5634 5623 5613 5605 5598 5592 5587 5580 5575 5568 5561 5553 5547 5540 5532
5743 5721 5701 5700 5693 5715 5743 5749 5749 5750 5750 5769 5773 5769 5764 5760 5755 5750 5751 5743 5738 5730 5716 5701 5687 5673 5658 5649 5640 5629 5618 5610 5602 5595 5589 5585 5579 5574 5566 5558 5552 5547 5538 5532
5735 5730 5717 5695 5699 5691 5727 5759 5766 5765 5726 5770 5770 5761 5750 5751 5724 5732 5738 5734 5724 5714 5705 5693 5679 5666 5655 5645 5636 5623 5614 5607 5600 5595 5589 5585 5580 5573 5565 5558 5551 5544 5537 5531
5716 5713 5706 5691 5700 5713 5743 5757 5762 5721 5731 5773 5772 5765 5750 5747 5754 5751 5742 5730 5721 5707 5695 5682 5675 5664 5653 5640 5629 5618 5611 5603 5599 5594 5589 5584 5577 5570 5562 5553 5547 5541 5535 5529
5704 5702 5700 5696 5695 5709 5742 5749 5737 5752 5765 5772 5766 5762 5756 5747 5740 5734 5725 5721 5713 5700 5685 5675 5666 5655 5643 5632 5625 5613 5606 5604 5596 5591 5586 5580 5574 5566 5558 5549 5543 5538 5531 5525
5695 5700 5704 5707 5706 5729 5740 5745 5755 5758 5760 5765 5763 5760 5751 5737 5728 5722 5712 5705 5700 5692 5678 5668 5657 5644 5631 5625 5619 5610 5605 5599 5593 5587 5583 5577 5569 5561 5553 5545 5539 5531 5525 5520
5698 5702 5699 5712 5724 5730 5743 5752 5757 5758 5759 5760 5754 5745 5741 5729 5719 5711 5703 5694 5686 5680 5670 5659 5648 5634 5623 5618 5612 5608 5600 5595 5588 5582 5576 5569 5561 5555 5548 5541 5536 5531 5524 5517
5689 5695 5697 5708 5722 5729 5744 5746 5753 5751 5750 5747 5742 5736 5726 5719 5708 5704 5694 5684 5675 5667 5659 5651 5640 5629 5619 5612 5607 5601 5595 5588 5581 5576 5569 5562 5556 5551 5545 5539 5535 5530 5524 5518
5690 5698 5693 5700 5722 5724 5733 5744 5753 5747 5744 5739 5735 5722 5716 5715 5707 5697 5685 5676 5667 5657 5649 5638 5628 5622 5615 5609 5603 5596 5590 5585 5577 5570 5563 5557 5552 5546 5540 5534 5532 5527 5521 5516